Temp
79 67 60 68 69 71 71 71 71 75 79 72 71 71 72 75 74 71 71 71 72 76 79 79 80 80 79 76 75 73 76 75 75 72 71 71 73 75 76 76 75 73 74 74
68 65 78 77 75 71 71 71 71 74 76 72 66 70 73 74 73 73 72 71 73 75 78 80 79 78 78 76 76 76 76 76 76 74 73 74 75 75 76 79 78 76 74 74
65 74 84 77 75 72 70 69 69 70 74 75 70 64 66 73 75 76 76 76 76 75 76 75 76 76 77 75 76 76 74 74 73 74 74 75 75 74 74 75 74 75 74 75
70 80 80 78 75 73 60 80 80 74 68 59 70 51 63 68 69 73 75 75 77 76 78 76 76 75 76 76 76 73 73 73 74 73 72 72 72 71 73 75 74 74 75 75
72 76 75 74 77 78 74 82 78 75 63 64 64 54 63 69 65 70 74 76 78 79 78 78 77 77 78 80 76 74 72 71 73 73 73 72 72 73 74 74 74 74 71 71
74 82 78 77 84 80 82 77 70 65 62 51 59 58 54 62 69 72 76 78 80 80 80 80 81 81 80 81 79 76 72 71 72 73 73 73 72 73 72 71 68 69 69 69
72 78 80 84 74 78 75 62 54 53 54 53 58 58 54 66 72 76 75 75 78 82 80 80 79 79 80 79 79 78 74 73 73 75 75 75 75 74 73 72 67 68 66 67
59 63 75 83 78 74 66 63 54 52 51 53 59 51 58 69 69 73 75 74 78 73 76 80 80 79 80 81 79 78 75 75 76 76 77 77 77 77 76 74 71 69 71 71
60 65 80 82 83 80 67 62 68 63 55 54 57 58 68 70 68 72 73 73 73 74 73 73 77 82 81 82 80 79 77 76 76 78 78 78 78 76 76 75 75 74 72 73
69 65 75 81 82 79 68 73 64 60 51 51 53 54 53 62 66 69 72 69 72 72 74 75 75 76 82 84 82 81 80 75 74 74 72 74 77 78 77 75 77 76 76 75
71 65 72 74 68 68 71 67 62 60 59 50 50 52 59 62 65 69 67 70 70 76 73 78 76 78 82 84 84 83 78 73 71 71 76 77 77 75 75 76 78 79 78 74
73 63 59 66 76 79 73 66 61 56 57 55 53 52 68 64 67 68 67 71 70 72 71 71 73 78 84 85 85 84 80 74 74 74 77 77 77 78 78 77 77 78 81 78
71 61 55 63 68 76 69 70 62 59 56 53 50 52 64 63 65 67 67 68 68 71 70 68 70 74 74 82 80 78 78 78 79 79 79 79 78 76 75 76 77 78 77 78
75 61 60 57 63 66 66 71 69 62 55 53 55 53 59 62 64 68 68 69 69 69 70 73 71 72 73 74 74 75 76 77 76 75 75 73 72 73 73 73 73 74 75 74
73 64 61 65 72 74 74 72 71 63 61 60 59 58 66 65 67 70 72 71 72 73 71 73 71 71 74 75 75 76 75 75 76 74 73 73 73 74 74 74 75 75 75 75
69 64 58 61 71 69 69 75 73 69 70 59 62 61 70 72 70 67 72 72 70 72 76 76 75 73 73 73 73 74 73 72 73 72 70 71 71 71 71 72 72 73 73 74
67 63 57 57 64 67 62 70 71 73 71 65 60 67 69 69 72 72 71 73 70 74 76 76 75 74 72 71 73 70 70 71 69 69 68 68 69 68 68 69 69 69 70 71
65 61 55 56 55 51 69 74 77 75 75 72 69 70 75 75 76 73 70 70 72 77 78 77 74 72 72 73 72 70 69 68 67 66 65 66 66 66 66 66 66 67 67 67
71 63 58 56 52 62 72 73 74 71 69 77 72 74 77 76 71 70 74 72 74 78 76 74 73 71 71 72 70 68 66 65 64 64 64 64 64 63 63 63 63 64 64 64
67 67 63 53 52 54 67 78 80 76 64 77 77 74 73 72 62 69 75 75 76 76 75 74 74 73 71 68 67 65 63 62 62 63 64 64 64 62 62 63 62 62 62 62
57 55 59 54 53 60 72 79 80 64 65 76 80 76 73 72 74 74 80 76 76 76 74 75 74 72 69 67 66 62 62 61 62 63 64 64 64 64 64 62 61 62 62 62
56 54 53 52 51 54 77 75 69 70 71 75 80 79 76 75 78 78 76 76 75 73 73 74 71 67 66 66 65 61 61 62 63 63 64 64 64 66 66 62 61 62 60 59
56 58 55 59 57 67 69 71 74 74 74 74 80 82 80 79 78 76 75 73 73 72 71 71 68 65 64 64 63 61 61 62 63 63 62 62 63 63 63 61 60 59 58 58
59 61 57 57 64 66 72 75 74 77 76 79 81 83 82 79 78 75 74 73 72 71 70 69 67 64 62 63 63 62 62 63 62 60 60 60 60 59 59 60 60 59 59 58
59 60 56 56 62 67 72 73 74 75 81 83 81 84 83 80 77 76 74 73 72 71 70 69 67 65 62 62 61 62 62 61 60 59 59 58 58 57 57 58 59 60 58 58
58 56 53 53 60 60 63 69 74 73 75 82 81 80 83 80 77 77 75 74 72 70 69 67 66 65 61 61 60 60 60 60 59 58 58 57 57 57 57 57 58 57 56 55
MSLP
1005.95 1006.73 1006.13 1005.34 1005.33 1005.48 1005.74 1004.94 1004.83 1004.31 1004.28 1005.00 1006.18 1007.61 1009.01 1009.80 1010.41 1010.80 1011.31 1011.51 1011.68 1011.80 1011.91 1012.37 1012.73 1013.30 1013.79 1013.99 1014.39 1014.67 1014.84 1015.21 1015.83 1016.19 1016.50 1016.57 1016.57 1016.41 1016.47 1016.52 1016.79 1017.10 1017.28 1017.62
1006.61 1005.77 1003.35 1003.23 1003.75 1004.18 1003.97 1003.81 1003.50 1004.09 1004.75 1005.07 1007.31 1008.05 1008.82 1009.15 1009.37 1009.76 1010.45 1011.12 1011.37 1011.59 1011.69 1012.06 1012.73 1013.13 1013.45 1013.75 1014.13 1014.70 1015.01 1015.18 1015.49 1015.90 1016.21 1016.23 1016.43 1016.36 1016.38 1016.26 1016.49 1016.77 1017.03 1017.26
1005.80 1003.46 1002.66 1003.19 1002.71 1003.11 1001.96 1001.93 1002.57 1003.51 1005.44 1006.00 1007.36 1009.02 1009.29 1009.22 1009.29 1009.59 1009.97 1010.30 1010.70 1011.06 1011.48 1011.98 1012.39 1012.75 1013.17 1013.59 1013.87 1014.28 1014.97 1015.32 1015.47 1015.76 1016.15 1016.33 1016.47 1016.55 1016.61 1016.62 1016.87 1016.85 1016.72 1016.79
1004.14 1002.64 1002.36 1002.05 1001.70 1001.73 1001.51 1001.31 1001.90 1003.68 1005.47 1006.96 1007.16 1009.34 1009.33 1008.89 1009.00 1009.11 1009.46 1009.81 1010.01 1010.41 1010.89 1011.56 1012.09 1012.47 1012.86 1013.11 1013.50 1014.00 1014.69 1015.13 1015.28 1015.63 1016.00 1016.29 1016.48 1016.84 1016.60 1016.60 1016.57 1016.47 1016.69 1017.44
1002.90 1002.10 1001.79 1001.37 1000.61 1000.29 1000.59 1000.26 1001.63 1003.81 1005.43 1006.81 1007.75 1008.48 1008.51 1009.10 1009.37 1008.81 1008.65 1008.89 1008.93 1008.99 1009.83 1010.59 1011.13 1011.53 1011.98 1012.47 1013.07 1013.57 1014.16 1014.68 1015.01 1015.41 1015.69 1016.11 1016.53 1016.60 1016.43 1016.74 1016.86 1016.86 1017.41 1017.59
1002.48 1001.23 1001.31 1000.16 999.61 999.42 999.87 1000.67 1002.06 1003.71 1005.74 1007.30 1007.39 1008.47 1010.45 1009.77 1008.37 1007.81 1007.82 1007.86 1008.14 1008.55 1009.03 1009.72 1010.35 1011.03 1011.57 1012.11 1012.59 1013.09 1013.73 1014.29 1014.63 1015.00 1015.21 1015.66 1016.16 1016.33 1016.49 1016.75 1017.32 1017.25 1017.06 1016.77
1002.62 1001.35 1000.20 999.74 999.64 999.43 1000.11 1002.11 1003.47 1004.97 1006.35 1007.57 1007.88 1008.71 1009.86 1009.22 1008.53 1007.37 1007.74 1008.61 1008.56 1008.25 1008.78 1009.09 1009.87 1010.31 1010.90 1011.40 1011.93 1012.48 1012.99 1013.48 1013.82 1014.31 1014.55 1014.87 1015.37 1015.79 1016.03 1016.47 1017.06 1017.19 1017.21 1016.91
1003.25 1001.41 999.72 998.79 999.08 999.43 1000.32 1001.79 1003.45 1004.68 1006.47 1007.87 1008.27 1009.53 1009.23 1007.95 1008.49 1007.61 1007.38 1008.00 1007.89 1008.55 1008.98 1009.21 1008.81 1009.38 1009.87 1010.60 1011.24 1011.63 1012.16 1012.43 1012.74 1013.19 1013.55 1014.09 1014.68 1015.11 1015.36 1015.63 1016.36 1016.41 1016.28 1015.95
1002.54 1001.11 998.93 998.34 998.09 998.80 999.87 1000.99 1001.81 1004.09 1006.39 1007.86 1008.83 1009.75 1008.92 1008.09 1007.87 1007.51 1007.89 1008.17 1008.12 1008.38 1009.17 1009.45 1009.73 1010.27 1009.91 1009.85 1010.20 1010.59 1011.15 1012.01 1012.27 1012.32 1012.87 1013.39 1013.97 1014.43 1014.66 1014.85 1015.11 1015.55 1015.57 1015.51
1001.20 1001.15 999.27 998.34 998.33 998.94 999.43 1000.44 1001.88 1003.93 1006.60 1008.22 1009.35 1009.65 1009.39 1008.38 1007.70 1007.63 1007.71 1007.68 1007.47 1008.07 1008.36 1008.36 1009.01 1009.47 1009.85 1009.55 1009.25 1010.05 1010.43 1011.01 1011.92 1012.32 1012.63 1013.25 1013.36 1013.65 1014.06 1014.35 1014.40 1014.54 1014.80 1014.99
1000.60 1001.12 1000.04 999.38 999.51 999.69 999.85 1000.68 1002.11 1003.80 1005.43 1007.60 1009.31 1009.58 1008.40 1008.06 1007.22 1007.05 1007.77 1007.63 1006.67 1007.52 1007.61 1007.00 1008.46 1008.82 1008.85 1008.81 1009.18 1009.22 1010.18 1010.64 1011.55 1012.13 1012.23 1012.66 1012.69 1013.01 1013.40 1013.83 1013.81 1013.63 1013.98 1014.46
999.78 1000.75 1001.15 1000.63 999.74 999.26 999.71 1000.55 1001.82 1003.85 1005.68 1006.92 1008.12 1008.84 1007.55 1007.77 1007.77 1007.85 1007.89 1007.48 1007.16 1007.63 1008.01 1009.06 1009.45 1008.56 1007.39 1007.46 1008.10 1008.61 1009.36 1010.06 1010.71 1011.34 1011.41 1011.83 1012.07 1012.41 1012.75 1013.03 1013.33 1013.32 1013.21 1013.25
999.12 1000.90 1001.66 1001.47 1000.65 999.64 1000.00 1000.26 1001.25 1003.01 1004.52 1006.39 1007.98 1008.48 1007.71 1008.36 1008.21 1008.25 1008.14 1008.16 1007.29 1007.39 1008.85 1009.55 1009.86 1008.63 1007.03 1007.40 1007.99 1008.45 1009.12 1009.79 1010.29 1010.47 1010.96 1011.38 1011.62 1011.97 1012.23 1012.47 1012.67 1012.87 1012.82 1012.72
998.56 1000.71 1001.78 1001.95 1001.32 1000.85 1000.33 1000.37 1000.95 1002.06 1004.19 1005.63 1006.67 1007.39 1008.06 1008.16 1007.43 1008.02 1008.20 1008.39 1008.73 1009.05 1008.83 1009.27 1010.11 1007.56 1007.38 1007.87 1008.36 1008.98 1009.73 1010.02 1010.31 1010.64 1011.13 1011.45 1011.63 1011.82 1011.99 1012.14 1012.31 1012.47 1012.36 1012.26
999.32 1001.06 1001.69 1001.33 1000.71 1000.05 999.68 999.72 1000.16 1000.90 1002.20 1003.89 1005.35 1006.00 1005.78 1006.52 1005.73 1006.50 1006.97 1008.05 1008.83 1008.86 1008.93 1009.83 1008.76 1008.37 1008.47 1008.88 1009.45 1010.00 1010.22 1010.47 1010.73 1011.26 1011.57 1011.71 1011.68 1011.81 1011.86 1011.97 1012.03 1012.05 1012.04 1011.89
1000.14 1001.27 1001.65 1001.64 1000.98 1000.21 1000.06 999.37 999.43 1000.03 1000.89 1002.63 1004.13 1004.98 1004.08 1005.16 1006.40 1006.71 1006.84 1007.67 1008.35 1008.49 1008.69 1007.96 1009.00 1009.63 1009.25 1009.78 1010.21 1010.59 1010.91 1011.45 1011.69 1012.05 1012.33 1012.33 1012.15 1012.36 1012.51 1012.51 1012.56 1012.48 1012.31 1012.13
1001.19 1001.99 1002.81 1002.46 1001.25 1000.37 1000.02 998.93 998.71 999.15 999.91 1001.32 1003.05 1003.04 1003.65 1004.67 1005.05 1005.66 1006.88 1007.69 1008.41 1008.02 1007.99 1008.37 1008.81 1009.39 1009.78 1010.01 1010.35 1011.17 1011.74 1012.25 1012.59 1012.75 1013.05 1013.04 1012.99 1013.04 1013.15 1012.97 1012.93 1012.91 1012.91 1012.65
1001.39 1002.52 1002.86 1003.36 1002.29 1001.28 999.58 998.48 998.31 998.85 999.46 999.89 1000.77 1001.67 1002.10 1002.89 1003.26 1004.90 1005.57 1006.36 1007.06 1007.19 1007.70 1008.09 1008.92 1009.77 1009.96 1010.31 1011.01 1011.76 1012.49 1012.85 1013.06 1013.30 1013.40 1013.45 1013.44 1013.43 1013.32 1013.22 1013.26 1013.22 1013.20 1013.22
1001.35 1002.58 1003.37 1003.72 1003.28 1001.74 999.62 998.49 998.26 998.64 999.17 999.62 1000.47 1001.29 1002.06 1003.60 1004.59 1005.12 1005.45 1005.72 1006.33 1006.54 1007.50 1008.41 1009.12 1009.49 1010.09 1010.74 1011.54 1012.28 1013.03 1013.29 1013.54 1013.75 1013.70 1013.69 1013.64 1013.68 1013.65 1013.63 1013.62 1013.52 1013.50 1013.50
1001.30 1002.17 1003.31 1004.28 1004.07 1002.35 999.84 998.34 997.74 998.08 999.01 998.94 999.46 1000.96 1002.14 1003.37 1004.55 1003.86 1004.73 1005.52 1006.00 1006.87 1007.89 1008.53 1009.25 1009.88 1010.39 1011.29 1011.82 1012.79 1013.55 1013.77 1014.06 1013.96 1013.91 1013.87 1013.86 1013.96 1013.88 1013.87 1013.87 1013.79 1013.85 1013.95
1003.47 1003.81 1004.11 1004.23 1003.59 1001.81 999.46 998.11 997.90 998.77 999.37 998.29 998.47 1000.04 1001.65 1002.36 1002.02 1002.50 1003.63 1005.48 1006.32 1007.24 1008.11 1008.71 1009.25 1010.06 1010.82 1011.55 1012.32 1013.38 1013.84 1014.17 1014.09 1013.93 1013.92 1013.89 1013.87 1013.87 1013.83 1013.98 1014.01 1014.01 1014.08 1014.12
1004.55 1005.04 1004.93 1004.29 1003.57 1002.12 999.39 998.57 998.77 999.07 998.33 997.87 997.89 999.29 1000.79 1001.93 1002.65 1003.05 1004.19 1005.34 1006.70 1007.56 1008.35 1009.01 1009.62 1010.66 1011.43 1012.08 1012.61 1013.75 1014.11 1014.09 1013.97 1013.95 1014.09 1014.01 1013.88 1013.78 1013.79 1014.10 1014.17 1014.21 1014.29 1014.40
1005.26 1005.66 1005.19 1004.46 1004.35 1002.86 1001.29 1000.35 999.27 998.05 998.12 998.12 998.14 998.74 999.46 1001.16 1002.47 1003.55 1004.71 1005.83 1006.91 1007.80 1008.47 1009.23 1010.08 1011.27 1012.01 1012.50 1013.03 1013.89 1014.04 1014.01 1014.03 1014.16 1014.21 1014.09 1014.05 1014.11 1014.11 1014.19 1014.45 1014.71 1014.58 1014.61
1005.98 1005.44 1005.35 1004.66 1003.91 1002.77 1001.96 1000.97 1000.27 999.28 998.09 997.65 997.79 998.39 999.53 1000.76 1002.07 1003.57 1004.84 1006.01 1006.97 1007.88 1008.69 1009.55 1010.41 1011.47 1012.41 1012.77 1013.17 1013.59 1013.94 1014.00 1014.34 1014.56 1014.61 1014.51 1014.48 1014.62 1014.57 1014.39 1014.52 1014.72 1014.69 1014.91
1007.13 1006.51 1006.43 1005.66 1004.65 1002.84 1002.29 1001.94 1001.37 999.74 998.50 997.51 999.01 998.02 998.93 1000.10 1001.71 1002.49 1004.49 1005.65 1006.65 1007.58 1008.68 1009.40 1010.28 1011.29 1012.24 1012.79 1013.35 1013.70 1013.95 1014.21 1014.55 1014.79 1014.91 1014.85 1014.84 1014.89 1014.87 1014.79 1014.72 1014.77 1014.85 1014.89
1007.57 1007.15 1006.99 1006.55 1005.81 1005.35 1004.42 1003.50 1002.45 1000.99 1000.03 999.59 999.61 1000.01 999.54 999.74 1001.08 1002.49 1003.86 1005.02 1006.29 1007.61 1008.65 1009.73 1010.47 1011.21 1012.27 1012.86 1013.34 1013.82 1014.02 1014.22 1014.60 1014.96 1015.08 1015.06 1015.09 1015.04 1014.99 1014.93 1014.85 1014.71 1014.73 1014.68
Wind_Speed
10 5 11 18 14 12 4 10 7 4 8 8 7 17 15 15 13 14 12 10 8 12 10 13 13 10 10 8 8 7 7 7 6 2 2 1 2 3 1 3 6 6 5 6
2 12 21 14 13 10 12 16 7 3 2 7 5 9 14 15 16 17 16 12 12 9 11 15 12 10 12 10 7 8 6 7 7 4 3 2 2 3 1 3 5 7 5 6
10 19 14 12 14 1 8 8 6 10 5 10 12 4 4 5 10 13 14 15 12 13 12 10 13 13 10 10 9 7 7 7 6 6 2 1 2 2 2 0 2 5 7 7
9 9 12 12 11 6 3 6 6 19 13 8 4 5 6 10 9 15 15 14 15 12 15 13 14 12 11 12 9 8 9 8 7 7 4 5 4 3 3 3 2 4 4 4
13 10 10 7 10 4 9 3 4 20 7 8 3 7 2 9 7 12 16 18 18 18 18 17 17 17 15 13 9 8 8 7 6 6 6 5 4 4 1 1 4 2 7 5
11 7 4 8 7 0 2 5 9 6 6 2 5 5 5 2 8 13 15 18 19 18 18 18 17 14 13 12 11 9 10 9 8 7 8 8 8 6 3 2 3 3 4 3
8 13 8 7 5 7 6 8 4 4 3 4 3 8 7 7 9 3 6 4 4 14 17 17 17 16 14 15 14 12 13 13 11 11 11 11 10 9 8 6 5 8 4 3
1 12 5 5 10 10 4 9 8 4 2 1 8 3 6 8 8 5 11 9 8 5 2 11 18 18 17 17 16 15 15 16 16 15 16 11 10 8 7 7 7 6 7 6
6 9 4 6 8 8 3 2 6 8 4 6 2 1 6 8 6 8 11 5 5 7 7 4 6 10 14 17 19 18 16 15 15 16 12 12 10 10 8 8 6 8 8 6
7 4 5 5 6 3 1 3 5 4 4 1 2 2 6 8 7 7 9 5 4 10 8 1 2 6 11 16 18 16 17 16 13 10 8 8 10 10 8 6 9 8 8 11
7 3 9 4 2 4 6 6 3 5 6 7 3 7 7 9 10 7 5 6 7 11 7 5 10 17 18 16 15 17 12 10 8 8 10 11 9 8 7 8 9 9 6 7
7 6 2 4 4 2 6 4 5 7 2 3 5 7 7 8 5 4 6 7 7 6 8 3 12 24 22 20 14 14 10 11 10 10 9 10 9 9 10 10 10 9 10 7
2 2 4 9 11 10 4 3 4 4 4 2 7 7 3 2 7 6 5 7 5 5 4 6 13 12 5 11 8 8 9 9 10 10 11 10 9 7 8 8 9 7 7 9
10 4 8 8 9 5 4 2 2 7 4 4 5 5 6 11 16 11 10 7 4 5 7 7 11 6 10 9 8 8 6 5 5 5 3 3 4 5 5 5 4 5 7 8
7 1 5 7 8 4 6 4 3 3 6 7 8 11 20 23 24 18 17 10 7 5 6 9 5 9 11 13 11 9 9 9 9 8 7 6 4 4 4 3 2 2 2 1
5 3 2 3 6 2 5 8 6 3 3 9 12 5 6 9 8 7 14 14 9 6 9 12 12 8 11 10 9 10 10 8 9 8 7 6 7 7 5 5 5 5 5 5
3 3 4 6 4 5 5 5 4 3 2 12 8 12 9 7 11 14 11 13 11 7 7 13 13 11 9 10 10 10 8 7 7 7 6 6 6 7 6 6 6 7 6 5
6 3 4 3 3 2 11 4 4 6 2 4 6 12 22 20 19 4 5 8 8 6 9 12 10 10 11 11 11 9 7 7 7 7 6 6 6 6 6 7 6 6 5 6
4 5 2 3 3 6 8 2 4 5 3 6 8 8 18 7 5 3 7 7 9 9 9 10 10 12 11 12 10 10 7 7 7 6 6 6 6 6 6 6 6 4 5 5
7 7 5 4 4 7 10 6 4 6 2 4 12 14 17 10 5 8 14 8 12 13 14 16 14 12 13 8 9 9 7 7 6 4 4 3 4 4 4 3 4 3 3 4
5 5 3 2 4 8 9 6 5 8 11 6 16 19 20 16 6 8 17 14 16 15 16 14 12 11 11 8 9 8 7 6 3 3 3 2 2 3 2 2 3 3 4 5
5 4 3 1 2 6 5 1 5 9 6 4 17 20 21 10 15 18 20 21 20 18 15 14 13 9 7 8 9 7 6 4 3 2 1 0 1 1 2 4 4 5 6 6
2 4 5 5 2 9 10 6 4 4 2 3 13 17 21 25 22 22 19 19 18 16 14 13 14 11 7 7 7 7 5 4 3 3 3 3 4 4 5 5 5 4 4 5
8 5 4 4 11 11 15 16 9 9 3 6 9 25 27 24 24 20 19 18 17 16 15 13 13 11 8 7 7 7 5 4 6 5 6 5 6 6 5 4 4 4 3 4
3 5 6 5 8 14 17 18 18 21 6 13 1 27 25 27 23 25 20 17 17 16 14 13 13 11 9 8 7 6 6 6 6 6 4 5 5 5 4 3 3 2 1 2
2 3 2 5 2 4 8 13 19 21 20 11 6 9 20 26 25 20 20 18 17 16 12 10 11 12 9 9 8 7 6 7 6 5 3 3 3 2 3 3 4 2 4 6
Wind_Direction
211 197 231 240 205 212 198 239 204 236 210 100 124 127 158 164 168 162 177 181 190 194 173 183 178 168 171 175 160 163 146 169 147 136 125 272 233 262 162 198 159 169 179 169
22 236 250 247 258 241 226 221 199 183 128 89 91 123 153 172 176 169 174 186 193 201 179 178 178 176 178 182 188 161 171 159 157 150 176 167 193 244 188 197 170 192 186 179
173 252 275 247 272 313 317 134 177 160 170 88 128 61 176 202 159 170 178 187 195 195 186 178 177 182 179 176 195 169 159 169 176 176 158 239 33 351 334 95 142 202 205 195
245 265 233 274 266 133 298 169 128 132 129 164 185 193 233 176 181 177 185 189 190 180 184 176 184 187 190 196 190 164 178 194 184 186 173 178 178 209 226 209 172 199 198 18
259 293 315 304 258 203 217 232 119 161 111 125 230 98 241 130 200 196 186 195 195 188 179 187 187 192 195 192 182 185 186 189 211 187 195 182 193 226 247 60 88 46 95 91
252 294 220 236 295 249 334 3 36 71 127 109 207 102 15 328 223 200 194 197 195 194 189 190 193 188 194 197 190 184 182 200 204 201 203 195 199 222 194 192 100 113 149 144
316 274 275 196 275 345 78 61 324 345 27 209 152 66 224 298 310 128 161 99 331 199 193 191 192 194 196 193 194 190 189 202 200 205 210 201 204 203 200 183 162 158 176 227
226 318 211 237 194 198 190 150 155 223 143 82 36 126 250 166 289 230 136 131 115 73 63 215 191 195 195 197 197 194 195 202 202 205 215 210 205 213 210 193 161 190 198 210
175 257 294 197 195 126 271 244 192 102 60 100 160 327 305 326 263 248 104 133 122 97 79 33 2 229 211 202 199 201 198 212 210 210 213 214 205 199 207 205 202 175 200 210
234 262 305 310 74 27 164 222 17 24 138 92 348 215 219 245 251 292 129 161 160 137 129 202 305 305 252 224 203 203 199 199 211 212 198 215 211 210 198 200 222 210 190 198
176 197 292 23 35 150 8 353 40 112 123 150 116 261 216 221 224 231 62 243 189 134 137 234 303 288 261 219 206 204 190 192 202 194 209 206 205 194 190 197 225 231 197 200
204 132 94 199 220 122 170 203 137 113 309 46 117 255 236 238 300 311 327 308 8 97 96 334 292 290 242 200 196 195 181 175 187 201 191 197 199 198 206 211 213 222 235 217
189 45 39 351 352 347 34 23 87 95 87 190 129 246 206 269 257 249 246 297 334 17 305 270 284 263 132 187 169 150 161 175 182 178 187 199 208 201 212 212 219 212 224 239
83 110 151 180 203 181 301 300 108 116 104 184 197 190 201 222 228 223 211 204 196 231 247 231 240 78 69 76 86 95 98 126 115 89 83 233 217 207 227 230 221 235 237 233
97 249 181 212 209 237 284 269 290 157 172 148 190 176 211 200 217 202 197 186 177 237 152 185 89 73 82 83 84 84 74 77 85 83 72 47 95 97 97 99 97 57 7 13
32 267 157 288 238 183 243 283 319 282 55 73 138 244 236 199 184 196 213 183 162 181 182 113 106 110 96 97 87 81 80 69 74 70 70 64 59 52 46 50 45 34 23 30
83 115 61 267 331 1 10 225 148 159 133 138 162 214 147 181 206 212 180 166 172 152 159 137 130 123 116 102 100 89 84 84 79 78 63 67 62 60 47 44 45 39 29 17
136 124 119 234 29 132 238 328 86 107 117 150 94 153 175 189 205 177 115 137 161 159 152 130 128 119 107 103 94 94 88 80 77 65 57 52 56 44 31 35 35 35 28 26
122 123 75 119 178 272 312 214 130 122 300 153 152 175 180 110 77 303 145 155 176 151 139 133 131 120 113 109 107 95 79 75 67 58 51 47 49 39 34 33 22 13 17 7
27 96 126 95 188 212 237 236 211 93 250 245 155 176 153 132 148 233 155 163 119 125 136 130 125 118 111 109 103 98 94 85 76 63 59 67 52 52 51 38 8 4 19 12
1 355 173 205 211 278 251 230 120 109 232 226 164 159 157 174 196 164 144 137 131 137 134 129 121 123 127 117 112 105 107 98 116 75 57 67 51 80 87 31 16 357 27 56
173 192 241 79 170 280 289 221 141 216 271 221 150 158 164 138 133 127 132 135 138 133 130 124 115 113 115 119 111 120 116 155 117 88 125 86 264 307 12 32 13 58 74 61
95 133 237 133 259 284 291 343 247 158 229 163 160 159 148 145 147 143 138 134 140 136 131 125 121 116 108 118 124 126 160 133 95 53 5 344 17 32 49 55 84 61 56 63
340 10 16 57 335 336 10 7 348 303 107 31 171 154 151 150 147 144 142 145 146 146 140 136 128 126 130 126 122 130 143 108 89 84 73 68 82 70 54 53 75 99 66 53
251 1 325 308 340 338 359 0 350 345 352 60 335 152 154 149 155 150 151 150 150 148 145 143 140 139 134 128 124 128 126 107 93 100 97 83 80 76 67 61 101 130 73 134
203 225 139 250 257 229 300 325 348 352 341 10 145 188 160 155 155 155 153 152 150 148 143 138 137 131 135 130 124 125 125 120 118 105 106 95 91 67 59 53 28 283 43 21